Wind_Speed
5 7 7 8 8 9 11 9 3 2 2 4 6 7 8 6 8 9 6 6 2 5 9 11 9 11 11 10 11 11 10 10 9 9 8 8 8 8 9 10 9 9 8 10 12 12 13 13 12 12 12 12 13 14 14 14 14 13 12 13 13 12 12 11 11 10 8 8 8 7 7 6 6 5 5 5 4 4 4 4 3 3 3 2 1 1
5 7 7 8 6 5 7 5 1 2 3 5 6 7 7 7 6 6 5 5 2 5 8 9 9 11 10 8 10 11 11 11 10 10 9 9 9 8 10 10 9 8 8 10 11 11 13 13 13 13 12 13 14 13 12 13 14 14 13 13 14 13 12 12 11 11 10 9 8 7 7 7 7 6 6 6 6 6 5 5 4 3 4 3 3 3
7 8 8 7 3 3 3 3 4 6 6 6 7 6 7 8 7 5 5 4 4 5 6 7 8 9 6 5 9 11 11 9 9 9 9 9 10 9 10 11 10 10 9 9 10 11 13 13 14 13 13 14 15 14 13 13 15 15 14 15 14 12 13 12 12 12 11 9 8 7 8 8 7 7 6 7 7 6 6 6 4 4 4 4 4 4
6 6 7 7 5 5 5 5 7 6 7 8 7 7 6 7 8 5 6 6 4 4 5 4 7 6 6 6 7 10 9 7 7 8 8 8 9 9 9 10 10 11 10 10 10 11 12 14 15 14 14 14 14 15 15 15 17 17 16 17 15 13 14 13 13 12 11 10 9 8 10 9 8 8 8 8 8 7 6 6 4 3 4 4 4 4
5 3 5 7 7 8 7 7 9 7 7 9 9 9 6 7 9 4 5 6 4 4 4 5 7 6 8 9 9 8 7 7 7 8 9 8 8 8 9 10 10 10 11 11 11 11 12 14 15 16 15 15 15 15 16 17 17 16 16 17 15 15 15 14 14 13 12 12 11 10 11 10 9 9 8 8 7 7 6 5 4 3 3 3 3 3
4 6 5 8 8 9 8 7 10 9 7 8 11 12 8 7 8 3 4 5 6 7 6 6 8 6 9 11 10 9 8 8 8 8 10 10 9 9 9 10 10 10 11 11 11 11 12 13 15 16 16 16 16 15 16 17 17 16 16 17 17 16 16 15 16 15 14 14 13 13 12 11 10 9 7 7 7 7 6 5 5 4 3 3 3 3
3 6 6 8 8 10 9 8 10 10 8 6 10 14 13 7 5 4 5 7 6 4 5 5 7 4 8 10 10 10 10 10 9 9 10 10 10 10 8 9 11 11 10 10 11 12 12 14 15 15 16 16 16 16 16 17 18 17 16 17 18 17 16 15 16 16 14 13 13 13 11 10 9 9 8 7 7 7 6 6 5 5 4 3 4 3
5 7 7 7 8 9 8 8 9 11 10 4 7 13 15 10 7 7 7 7 4 1 4 6 7 5 7 8 9 10 10 11 11 11 11 10 10 11 10 10 10 11 10 10 11 12 12 14 15 15 15 16 16 16 16 16 17 17 16 17 18 17 16 16 16 16 14 13 13 12 10 9 9 9 9 8 8 7 7 7 7 6 5 4 4 3
8 11 9 10 9 7 7 5 9 14 10 1 5 8 11 9 8 7 7 7 3 2 6 8 6 6 6 8 7 8 10 11 11 11 10 10 10 10 10 10 10 11 11 10 10 11 12 15 16 16 15 16 15 14 15 15 14 15 15 15 15 15 15 16 16 16 14 12 13 11 10 10 9 9 9 9 8 8 8 8 7 6 6 4 3 3
5 6 6 10 9 4 3 1 5 14 8 3 5 6 6 6 6 5 7 6 4 6 8 7 5 6 5 8 7 7 9 9 9 9 8 8 9 9 9 9 9 10 10 10 10 10 12 14 15 15 15 15 13 11 11 11 11 13 14 14 14 14 14 15 15 14 14 13 12 10 10 11 11 11 10 9 9 8 9 9 8 7 6 5 3 3
3 1 2 7 6 1 2 3 1 8 4 1 6 8 7 7 5 5 6 4 5 8 6 6 4 6 4 7 7 5 3 3 4 7 7 5 5 6 7 8 9 9 8 9 9 10 12 13 14 14 14 13 11 9 9 8 10 11 12 13 13 13 13 15 15 14 14 14 11 10 10 11 12 12 11 10 9 9 9 10 9 7 5 5 4 3
6 5 3 5 4 2 2 3 2 3 4 4 8 8 7 6 5 5 5 4 7 7 4 5 3 7 5 5 6 6 6 4 3 3 5 3 2 1 3 6 7 8 8 9 9 10 11 12 13 12 11 10 7 6 4 2 4 6 8 11 13 13 15 16 16 16 16 14 11 10 11 11 12 12 11 11 10 10 10 10 9 7 6 5 4 4
8 9 8 6 5 6 7 4 4 5 6 7 8 8 7 7 6 7 7 7 8 4 4 4 3 7 5 3 6 7 7 5 4 3 4 3 3 1 1 3 6 7 8 8 8 8 9 9 11 11 10 11 12 13 12 13 13 11 7 6 8 9 13 16 17 15 14 12 10 10 10 10 11 11 10 11 11 10 10 9 9 8 7 5 5 5
7 9 10 8 6 8 9 6 6 7 7 9 9 8 7 6 6 7 7 7 7 3 4 3 2 6 6 4 6 7 7 5 4 4 4 3 3 2 0 2 5 6 7 7 7 7 8 8 10 11 12 13 15 17 15 14 17 19 18 17 15 9 2 6 11 11 11 10 9 9 9 9 9 9 10 10 10 10 10 9 9 8 7 6 6 6
9 8 10 10 5 9 12 10 6 7 9 10 9 8 8 6 5 6 6 6 7 5 5 4 3 6 6 4 6 6 5 5 5 5 5 3 2 2 2 3 5 6 5 6 6 6 7 9 11 12 12 12 13 15 16 20 22 20 15 10 7 4 6 3 7 12 12 11 11 11 11 10 9 9 9 9 10 10 9 9 8 8 8 7 7 7
9 6 7 6 2 7 12 9 7 8 9 8 6 7 7 5 4 2 1 1 3 4 4 5 4 2 2 4 5 4 4 6 6 7 7 6 6 6 5 6 6 6 6 6 6 6 7 10 11 10 10 11 12 11 15 23 24 20 15 8 5 10 10 7 9 13 14 15 15 14 13 11 9 9 9 9 10 10 9 9 8 8 8 8 9 8
8 5 8 7 3 5 5 4 6 7 5 6 7 8 2 2 4 3 2 3 1 6 4 5 5 3 4 4 5 4 4 7 8 8 9 8 8 8 7 7 6 7 7 6 6 7 8 10 10 9 9 10 10 11 16 21 21 18 15 11 7 12 16 18 19 18 17 16 14 15 15 13 12 11 11 10 10 10 10 9 8 9 9 9 10 9
7 5 7 7 6 5 1 3 6 4 3 4 7 7 3 1 4 4 4 3 4 7 4 5 8 7 7 5 5 5 5 8 8 9 9 9 9 9 8 8 8 9 8 8 8 8 9 9 10 11 12 11 9 9 14 16 17 17 15 10 4 13 21 22 20 17 16 15 15 16 16 15 14 12 11 11 12 11 10 10 9 9 9 9 10 10
6 6 5 4 3 6 5 6 6 4 3 3 2 5 5 4 6 6 6 5 6 7 5 7 10 9 7 5 6 5 5 8 7 8 9 9 9 9 10 11 11 10 9 9 9 8 8 9 9 9 11 13 10 7 10 12 14 16 14 8 5 13 25 26 19 17 16 14 15 17 17 17 15 12 11 11 12 11 11 10 11 10 10 10 11 11
4 6 3 3 2 4 6 7 8 8 6 3 3 5 5 4 5 4 5 5 6 7 6 6 8 7 3 3 6 6 6 6 5 6 8 8 10 10 9 9 9 8 7 7 7 7 8 9 10 9 9 12 10 7 8 9 11 13 13 10 11 17 23 22 16 15 14 13 13 13 16 17 14 12 11 11 11 11 11 10 11 12 11 11 11 11
3 4 4 5 4 4 6 5 6 5 6 7 7 7 6 4 3 4 5 5 5 7 6 6 7 4 3 5 5 6 6 4 3 5 7 8 10 9 8 7 7 7 7 7 7 8 9 10 11 11 10 11 11 10 10 10 12 12 12 12 13 16 16 13 11 11 11 10 10 11 14 15 13 12 11 10 10 10 11 11 12 12 11 10 11 11
3 4 6 5 5 6 3 3 3 4 2 4 7 9 9 7 6 6 7 6 5 6 5 6 7 2 4 4 4 5 4 2 3 6 8 9 9 9 8 8 8 7 7 8 9 9 10 11 12 12 11 11 11 12 12 13 14 12 11 11 11 11 9 8 8 8 8 7 8 9 11 12 12 10 9 10 10 10 11 12 12 13 11 10 10 11
0 2 5 6 5 3 5 7 3 3 3 3 4 5 7 8 8 9 8 6 6 6 4 6 6 2 5 4 4 5 4 4 6 7 10 10 9 10 10 10 9 9 9 9 10 10 10 11 12 12 12 12 11 12 13 13 13 13 10 9 8 7 6 5 5 5 5 5 5 6 9 10 9 9 9 9 9 9 11 12 13 13 12 10 9 10
1 2 6 7 5 2 5 5 3 1 2 5 3 2 3 6 6 6 5 3 5 7 5 6 7 3 5 4 5 5 6 6 6 8 10 10 10 11 11 12 11 10 10 10 9 10 11 12 11 11 11 11 11 12 12 12 12 11 9 7 6 5 5 4 5 4 4 4 4 5 7 8 7 7 8 8 8 8 10 12 12 12 12 11 10 10
1 1 4 7 7 6 6 6 5 4 4 4 1 1 2 3 3 3 3 3 6 9 9 9 6 3 5 4 5 6 8 8 7 8 9 10 10 11 11 11 10 10 10 10 10 10 11 12 12 11 11 11 11 11 11 11 11 9 7 5 6 6 5 5 4 4 4 5 5 5 6 6 6 6 7 8 8 9 10 11 12 12 12 12 12 11
1 2 2 5 7 7 7 5 3 4 4 3 2 2 2 2 3 4 6 8 8 9 10 10 4 5 6 6 8 7 9 9 8 9 9 9 11 11 11 10 10 10 10 10 11 11 11 12 13 13 12 11 11 11 11 11 10 8 8 7 7 6 6 6 5 4 4 4 4 4 5 6 6 6 7 8 9 10 10 11 11 11 11 11 12 12
2 3 3 3 2 2 2 4 4 1 4 5 4 4 3 1 2 4 7 9 6 6 8 5 5 10 8 8 9 7 8 9 8 10 10 10 10 11 11 10 10 10 10 10 11 11 12 12 13 14 14 12 12 11 10 10 10 9 9 9 8 8 8 7 6 5 4 3 2 3 4 5 6 7 7 9 10 10 10 10 11 11 11 11 12 13
4 3 2 4 6 6 7 8 7 4 6 6 6 6 6 4 1 3 4 4 5 6 7 5 12 12 9 8 8 7 7 8 8 9 10 10 10 11 11 11 12 11 11 12 12 12 13 12 12 14 15 13 13 12 11 10 10 10 10 10 9 9 8 8 7 6 5 3 1 1 2 3 3 5 6 8 9 10 10 10 11 11 12 12 12 12
5 5 5 6 7 6 7 8 8 8 8 8 8 8 8 8 5 3 3 6 6 3 2 7 13 12 9 8 8 7 7 8 9 9 9 10 10 11 12 13 13 13 12 13 13 13 13 12 12 14 14 13 13 12 12 11 10 10 10 10 9 9 9 8 7 6 5 3 2 1 1 0 1 3 5 6 8 10 11 11 11 12 13 13 13 13
2 5 9 10 9 8 6 6 7 8 7 7 8 8 8 9 9 8 7 7 7 7 7 10 14 13 9 8 8 8 8 8 9 9 10 11 11 12 13 13 13 13 13 13 13 13 12 12 13 14 14 14 14 13 12 12 12 12 12 11 10 9 9 7 7 6 5 4 3 3 2 1 1 3 4 5 7 8 9 10 11 12 13 14 13 13
2 4 9 10 8 8 7 6 6 6 6 6 5 5 5 6 6 6 7 6 7 8 9 12 13 10 7 7 9 8 8 9 10 10 11 10 11 12 13 14 13 13 13 12 12 13 13 13 14 15 15 14 14 13 13 13 13 13 13 12 11 10 9 8 7 6 5 4 3 3 2 1 1 2 4 5 6 7 7 8 9 11 12 12 12 12
3 5 8 7 6 7 8 7 6 4 2 4 6 4 1 3 3 4 4 4 3 5 9 9 7 7 7 8 9 9 10 12 12 12 11 10 11 13 14 14 13 13 13 12 12 12 13 13 14 14 15 14 14 14 14 13 13 13 12 12 11 10 9 8 8 6 5 4 3 3 2 2 2 2 3 4 5 7 7 8 9 9 11 11 12 12
5 6 7 7 7 6 8 9 7 5 4 6 6 3 3 4 4 3 3 3 4 1 4 3 5 8 9 9 10 11 11 12 11 11 10 11 12 13 13 13 13 13 13 12 12 12 12 13 14 15 15 15 15 15 14 13 13 12 11 10 10 9 8 8 8 7 6 5 5 4 3 1 2 2 3 4 5 6 7 8 9 9 10 11 12 13
5 7 7 6 6 5 7 8 7 7 7 3 0 2 3 4 7 6 3 2 2 2 2 5 9 12 11 10 11 11 11 11 11 11 10 10 10 11 12 12 12 11 11 11 11 11 11 12 14 14 15 15 15 14 14 14 12 11 10 9 9 8 7 7 7 7 7 6 6 5 4 2 2 2 3 4 5 6 7 8 8 8 9 10 11 13
6 7 5 4 5 4 7 8 7 7 4 1 2 2 2 3 8 10 8 5 3 4 8 11 12 12 10 10 11 12 12 13 12 12 12 11 10 10 10 9 9 9 9 9 9 9 11 12 13 14 14 14 14 14 14 14 13 11 10 9 9 8 7 6 6 6 6 6 6 6 5 4 3 3 3 3 5 6 8 9 9 9 9 9 10 11
4 5 4 3 3 3 6 8 6 2 2 4 4 5 5 6 9 10 8 6 5 6 11 13 12 11 11 11 11 11 12 13 12 11 11 11 9 8 8 8 8 8 8 7 7 9 11 11 12 12 11 11 12 13 13 13 13 12 10 10 9 8 7 6 5 5 5 5 6 6 6 5 5 5 4 4 5 6 7 9 10 11 10 10 11 11
2 3 4 4 3 3 6 7 3 2 3 5 5 5 3 3 4 2 3 5 4 3 8 12 13 13 12 11 11 10 10 10 9 8 9 9 8 8 8 8 8 7 7 7 7 9 11 11 11 11 10 11 13 14 14 14 14 12 11 10 10 9 8 6 6 6 6 5 6 6 6 6 6 5 6 6 6 6 6 7 8 9 9 9 10 11
3 1 1 2 3 4 6 7 5 4 4 4 6 5 3 3 2 3 1 5 4 2 7 12 13 13 12 11 10 9 7 6 6 6 7 7 8 7 8 8 8 8 8 9 10 11 12 12 13 12 12 13 14 14 14 14 14 12 11 11 11 11 9 8 8 8 8 8 8 7 7 7 7 6 6 7 7 8 8 8 8 8 8 8 8 9
3 2 2 1 2 4 6 8 7 5 1 3 5 3 3 3 3 3 3 5 7 7 8 11 12 11 10 9 8 5 4 5 5 5 5 6 7 7 7 7 8 9 9 11 12 13 13 13 12 12 13 13 13 13 13 13 13 12 11 11 11 11 10 9 9 10 10 10 9 9 9 8 8 8 8 8 8 8 9 10 9 8 8 9 8 8
2 2 2 3 3 4 5 6 4 1 3 3 2 2 4 3 2 4 6 6 9 9 8 9 10 9 7 7 5 2 1 0 4 6 5 5 6 7 7 7 8 9 9 11 12 12 12 11 11 12 12 12 12 13 13 12 12 11 11 10 11 11 10 9 10 11 12 11 11 10 10 9 9 9 9 9 8 8 9 10 10 10 10 10 9 8
2 1 2 5 6 5 5 6 3 3 4 3 3 5 5 4 3 5 3 5 10 10 8 8 9 7 5 4 3 2 4 5 6 6 5 5 6 7 7 8 8 8 9 10 10 10 11 11 10 11 11 11 11 12 12 12 11 11 11 11 11 11 11 11 11 12 13 13 12 12 11 11 10 10 10 11 10 9 9 10 11 11 11 11 10 9
2 1 1 4 5 3 4 5 4 2 3 4 4 4 4 3 2 2 2 6 10 10 9 9 8 7 6 6 5 6 7 7 7 6 5 6 6 6 7 8 9 9 9 9 9 9 10 10 9 9 10 10 10 11 11 10 11 12 11 11 12 12 12 12 12 13 13 13 14 14 13 13 12 11 11 11 11 10 10 10 10 11 11 12 11 10
3 2 3 2 1 2 4 5 5 1 3 3 2 1 1 2 2 4 5 7 9 9 9 8 8 7 6 7 7 7 6 7 6 5 5 5 6 6 8 9 9 9 9 9 9 9 10 10 9 9 10 10 10 10 9 10 11 11 11 12 13 13 13 13 13 14 14 14 14 15 15 15 14 13 12 11 11 12 11 10 10 11 12 13 13 12
4 4 2 1 2 3 4 3 1 1 3 2 2 3 5 5 4 6 6 7 8 7 6 7 7 7 6 6 6 6 6 5 5 5 5 5 6 7 8 8 8 8 9 9 9 9 10 10 10 10 10 10 10 10 10 10 11 11 12 13 13 14 14 14 14 15 15 15 15 16 16 16 16 15 14 13 12 12 13 11 10 11 13 14 15 15
5 4 2 2 4 3 2 3 4 3 5 5 5 7 9 9 7 6 6 7 6 5 5 5 6 6 6 5 5 5 5 5 4 4 5 5 6 7 7 8 8 8 9 9 9 10 10 11 11 11 11 11 11 11 11 10 11 13 14 14 14 14 15 15 15 15 16 16 17 17 17 17 17 17 16 15 14 13 14 13 12 12 14 15 16 16
4 2 2 1 5 6 6 6 6 6 7 8 8 8 9 9 8 7 7 7 6 6 6 5 6 6 6 5 4 4 4 4 4 4 4 5 5 6 7 7 7 8 9 10 10 11 11 11 11 11 11 12 12 11 11 11 11 13 14 14 14 15 15 16 16 16 17 17 17 18 18 19 19 18 18 18 16 15 15 15 14 14 14 15 15 13
4 0 1 3 5 3 3 6 7 7 8 8 7 8 8 8 8 7 7 6 6 6 6 6 6 5 5 6 5 4 4 3 4 4 4 4 4 5 6 6 8 9 9 10 11 11 11 11 11 11 12 12 12 12 12 13 13 14 15 16 16 17 17 17 17 17 17 17 17 18 19 20 20 19 19 18 18 17 16 16 16 15 15 16 16 14
2 0 2 4 3 2 5 8 7 6 6 6 5 5 5 6 7 6 6 6 6 6 6 6 5 5 4 4 4 3 3 3 3 4 4 4 4 5 6 8 9 10 10 11 11 11 11 11 11 12 12 13 13 14 14 15 15 16 17 17 17 18 18 19 19 19 19 19 19 18 19 19 20 20 19 19 19 20 19 17 18 18 17 17 18 17
0 1 1 2 3 5 7 8 7 6 6 5 4 5 5 5 6 6 5 5 5 5 6 6 5 4 4 3 3 4 4 3 4 5 5 5 5 6 8 10 11 11 11 11 11 10 11 11 11 12 12 12 13 14 14 15 16 17 17 18 18 18 19 19 20 21 21 21 20 19 19 19 19 20 20 20 21 21 21 19 18 17 16 17 18 19
2 2 2 3 4 3 5 8 7 4 4 5 6 6 5 4 4 4 4 3 4 4 4 4 4 3 3 3 4 4 4 4 5 6 6 6 6 8 10 11 12 12 12 12 11 10 10 10 11 12 13 13 13 14 15 16 17 18 19 19 19 19 20 20 21 21 21 20 20 20 19 19 19 19 19 20 21 21 21 19 19 19 17 14 15 19
2 1 1 1 0 3 6 8 5 1 2 6 7 6 5 3 3 3 3 3 4 4 3 2 2 2 2 3 3 4 4 5 6 6 6 7 8 10 11 12 12 13 12 11 11 10 10 11 12 13 13 14 14 15 16 18 19 20 21 21 20 20 20 20 21 21 21 20 20 20 19 20 20 19 18 19 20 21 21 19 18 20 20 18 16 17
Wind_Direction
203 202 200 212 205 191 196 212 257 341 284 219 199 214 218 205 204 201 158 114 176 230 216 218 223 230 230 202 183 179 181 193 193 187 190 186 181 184 190 193 190 189 181 171 177 181 183 185 183 185 187 187 192 193 191 188 186 187 185 177 173 174 168 164 166 165 163 162 162 164 160 148 141 140 134 127 117 107 95 88 94 108 120 121 110 127
212 217 206 206 201 174 187 206 269 270 245 226 215 212 211 217 207 173 141 122 155 242 222 209 224 231 225 198 179 178 183 193 195 193 194 190 185 185 192 194 187 184 172 164 171 177 184 185 180 185 189 190 190 188 187 186 182 181 183 181 174 172 173 170 168 168 167 166 166 163 155 145 139 138 133 126 118 110 104 97 93 102 113 112 106 108
205 221 209 183 140 115 156 189 208 220 225 223 218 215 212 211 201 141 120 147 171 238 227 194 221 224 197 189 187 185 188 191 193 197 198 194 189 186 190 193 188 180 168 165 173 177 183 184 183 186 190 195 192 183 184 187 186 184 183 182 178 172 173 172 171 171 167 164 162 153 147 144 139 131 120 116 115 111 106 102 100 104 108 113 114 111
200 211 192 157 139 165 175 188 205 214 219 223 216 217 212 191 204 186 143 160 175 243 264 221 223 207 166 178 189 190 190 181 187 200 205 202 195 190 191 193 190 183 178 178 181 180 181 184 187 190 192 196 191 183 187 191 189 187 184 182 177 172 172 170 169 168 163 158 153 146 142 137 134 130 123 119 115 112 108 105 105 106 113 117 114 114
201 113 137 159 174 196 193 189 207 218 212 215 219 226 220 185 213 229 131 153 179 203 241 234 225 201 174 180 178 179 182 176 186 201 206 205 200 193 190 195 193 190 189 184 183 183 181 185 190 193 193 194 191 187 190 192 191 188 185 183 178 174 172 167 167 167 162 159 154 147 144 138 135 134 133 131 124 123 121 114 113 116 125 122 111 109
199 99 136 182 190 205 209 201 209 221 216 207 213 229 242 211 211 218 142 179 210 193 192 221 231 196 172 181 176 167 175 183 189 200 204 199 197 195 191 194 194 193 195 189 187 187 185 187 190 195 196 192 192 193 193 192 192 190 186 186 182 177 174 169 168 169 166 163 159 154 152 151 148 144 142 141 136 136 131 122 121 124 130 125 115 105
191 133 175 196 197 208 220 223 208 212 228 211 194 212 231 230 214 216 198 208 227 194 161 215 247 198 166 179 173 167 179 185 188 202 206 197 195 198 195 193 191 192 194 190 191 190 189 190 190 194 197 195 194 194 193 194 194 190 187 188 186 179 175 172 169 171 171 166 164 161 158 153 150 146 142 141 139 135 130 126 127 128 132 132 123 112
193 180 193 205 213 217 223 224 196 201 229 207 156 194 212 213 212 216 216 221 233 138 150 208 248 229 176 167 159 168 184 187 192 202 204 199 195 195 195 192 190 189 188 188 191 192 191 194 193 193 196 199 198 191 189 192 193 190 188 188 185 179 176 173 171 173 172 167 167 166 157 148 147 146 143 143 139 132 128 126 126 127 130 135 128 118
186 199 199 205 216 220 216 208 181 197 221 105 114 193 204 204 214 216 223 226 212 217 204 195 226 233 182 146 143 173 191 192 196 197 197 198 192 190 194 193 191 187 186 188 188 188 190 194 195 194 197 199 195 188 186 187 186 186 187 184 178 172 171 172 171 172 170 166 168 167 158 149 141 139 142 142 139 134 130 129 128 127 127 131 126 117
157 210 219 214 219 216 193 78 181 201 212 81 124 178 179 189 209 216 231 225 191 231 228 178 200 240 187 152 161 184 193 189 184 180 183 193 192 192 194 192 190 185 183 187 185 185 188 190 192 192 193 191 184 179 177 175 179 182 182 177 169 163 160 165 169 168 166 165 168 167 159 148 137 137 143 142 143 143 137 134 133 133 132 132 130 122
127 129 264 230 235 286 74 59 186 210 212 145 175 173 168 182 193 210 232 231 210 227 215 164 205 257 206 169 172 167 156 139 145 149 143 152 176 193 200 196 192 185 181 184 181 177 180 184 186 185 183 179 169 161 162 169 180 182 179 171 161 151 149 156 165 167 164 163 166 164 157 150 142 143 147 146 150 151 143 141 138 137 135 129 131 131
204 196 206 211 223 264 197 144 126 189 199 210 202 187 181 186 190 205 206 212 229 226 170 139 203 246 225 173 148 117 86 60 50 102 102 90 94 149 205 205 196 187 181 183 178 171 172 174 177 178 174 160 132 109 106 137 178 184 186 173 153 141 143 153 165 169 165 161 161 158 157 155 148 147 151 152 155 154 148 145 140 137 136 130 132 136
214 218 211 191 186 218 226 188 148 173 197 212 211 197 197 196 195 209 202 206 225 213 123 128 209 230 218 124 107 97 79 58 29 26 37 21 360 17 212 207 196 189 181 179 174 166 161 162 173 174 154 125 101 86 59 32 29 36 44 89 105 123 146 156 163 162 154 152 151 151 155 157 153 151 153 152 152 154 150 147 143 139 138 137 138 136
199 215 215 206 190 205 227 219 172 176 192 205 205 201 210 207 199 209 208 212 217 177 114 127 213 222 198 112 77 72 63 51 43 41 40 20 343 345 322 185 181 182 180 174 166 158 159 162 164 155 139 128 123 119 103 71 60 62 60 54 45 31 30 137 139 131 125 131 142 155 163 165 160 155 157 155 154 156 149 145 145 139 137 141 139 133
205 206 203 208 187 182 210 231 216 188 191 204 210 212 223 226 216 220 223 226 223 191 138 145 201 223 202 119 63 58 63 60 59 60 66 70 61 70 109 137 148 157 159 152 145 144 151 147 139 136 139 139 138 134 122 109 102 103 102 78 43 333 309 356 116 128 136 150 164 175 177 171 164 159 160 157 152 151 147 142 142 135 136 141 138 132
226 217 171 171 120 176 203 224 230 216 199 198 219 223 227 240 232 221 249 303 257 225 174 175 211 232 163 107 85 82 77 71 66 68 73 74 76 86 99 106 114 124 125 121 125 135 140 136 134 140 144 139 134 123 110 112 117 124 132 139 198 226 228 219 189 176 177 181 180 182 181 172 165 161 160 158 153 150 145 142 140 134 136 141 138 133
229 215 138 143 172 195 217 219 212 236 216 179 210 220 207 284 253 228 158 96 285 250 202 182 212 183 150 144 118 114 88 70 62 63 67 69 78 86 91 99 108 114 116 119 128 133 134 133 126 116 108 109 115 109 105 117 131 135 135 145 205 245 229 209 205 203 201 200 194 189 185 178 171 167 165 163 156 150 145 141 137 135 140 145 141 136
231 217 148 174 197 165 209 232 199 241 257 200 210 205 139 50 247 242 233 185 209 237 203 184 216 203 187 179 133 120 78 57 54 60 66 72 82 89 94 101 103 104 108 114 118 113 110 108 99 94 90 83 84 99 109 126 145 143 139 146 200 266 251 225 206 204 210 212 206 199 193 187 180 174 172 164 155 152 151 146 141 143 149 151 147 143
226 227 156 172 197 138 154 214 196 190 240 271 249 189 179 222 216 208 230 223 212 227 216 199 213 214 208 182 136 119 60 47 53 66 72 77 86 92 96 96 94 97 105 109 110 104 94 88 84 91 96 88 79 85 108 136 156 146 142 158 203 245 247 238 218 207 210 206 202 201 199 194 185 177 176 166 159 160 157 152 150 153 157 157 154 151
213 237 188 147 159 154 172 209 211 191 186 230 256 203 204 245 234 211 223 230 229 232 223 206 209 213 208 118 106 94 55 43 56 75 79 82 88 90 91 96 98 101 103 105 107 101 88 82 80 80 87 92 96 100 114 139 150 140 147 178 212 225 230 229 220 211 206 199 196 195 194 192 185 180 182 174 168 164 157 156 159 160 164 164 159 157
195 238 218 156 150 198 197 207 231 219 191 201 214 208 204 212 232 241 230 230 250 245 225 217 217 197 84 59 68 69 56 41 58 95 102 98 92 90 91 98 103 101 97 96 99 95 85 80 78 75 76 86 104 120 131 136 132 135 153 179 211 223 216 208 208 207 203 200 196 187 185 187 183 182 184 178 171 164 157 160 164 164 168 169 163 161
190 221 225 193 194 216 185 76 2 325 291 233 222 218 216 211 212 230 225 211 233 251 245 238 231 159 73 44 52 58 58 92 140 124 120 116 108 102 94 87 88 93 94 93 95 92 87 86 86 87 91 95 103 113 118 118 119 128 149 176 205 216 203 191 194 192 194 198 194 183 183 185 182 182 182 174 166 161 161 166 169 169 170 172 171 166
26 221 228 221 224 202 103 85 64 4 344 282 257 242 231 223 220 231 233 207 204 229 245 251 244 131 68 44 57 65 78 127 149 135 124 125 119 110 100 90 89 90 88 89 93 93 92 96 98 99 99 99 96 95 100 107 112 119 134 161 186 190 177 171 168 170 185 193 187 182 184 185 183 183 180 173 167 165 167 172 175 175 174 177 179 173
22 230 229 222 219 159 117 128 143 114 232 229 229 258 261 246 236 246 259 231 210 218 217 235 234 147 80 52 61 78 95 116 134 128 125 127 116 106 101 95 90 89 88 90 92 93 94 94 95 96 93 88 84 82 87 93 96 101 116 138 147 145 145 142 145 157 169 173 175 179 184 183 181 181 181 181 181 178 173 173 177 178 178 181 184 182
159 283 253 221 207 199 192 190 182 181 205 216 180 71 320 290 245 239 250 244 242 231 223 236 235 123 89 80 83 89 100 107 108 110 118 121 113 106 101 95 91 92 94 92 86 82 81 79 80 84 86 84 82 82 83 83 87 99 115 122 119 121 123 121 132 148 155 163 171 178 185 184 182 187 191 195 204 199 182 173 175 179 182 184 184 186
108 29 324 245 225 219 216 212 210 194 170 131 82 69 19 293 233 232 227 226 235 222 221 242 235 115 107 103 97 97 106 109 105 101 99 103 108 106 100 98 101 103 100 89 80 76 73 75 77 80 84 86 87 89 88 88 95 106 110 109 106 104 103 105 114 129 144 159 172 183 194 195 199 204 206 214 219 209 191 181 179 181 185 187 185 184
87 59 26 350 341 327 344 8 356 338 144 124 101 81 55 356 261 259 238 234 241 222 220 223 138 129 125 110 100 97 105 109 109 106 101 102 107 102 96 97 101 102 98 88 82 79 77 76 77 78 77 78 84 91 93 96 99 98 95 95 92 87 85 85 93 106 113 121 160 195 203 207 214 218 221 225 221 210 200 193 189 188 189 190 188 185
130 123 73 56 56 45 37 35 29 54 94 90 81 73 52 40 309 246 250 296 305 254 227 149 125 130 124 110 106 105 109 109 106 107 108 109 107 101 100 101 98 96 93 88 86 84 82 79 77 77 76 74 78 82 84 85 85 82 80 79 77 73 71 70 74 84 91 94 111 190 210 218 227 229 229 227 219 213 208 203 202 203 200 196 195 194
147 150 159 133 102 82 64 49 43 58 68 62 60 59 51 50 54 65 45 8 350 300 202 122 118 116 113 117 117 113 114 109 105 108 112 112 109 105 105 102 97 94 91 89 87 86 85 83 79 77 77 77 76 75 75 74 71 67 64 64 65 62 60 61 62 66 72 75 67 43 15 300 238 237 234 227 221 219 216 215 219 219 215 208 206 205
152 144 160 152 136 130 113 82 63 58 51 46 50 47 42 47 54 65 68 55 56 68 83 101 104 100 107 122 117 114 115 110 108 110 110 111 107 103 100 98 95 92 89 88 87 85 84 83 82 80 78 77 76 75 74 71 67 63 57 55 55 53 54 59 61 58 57 55 47 34 20 3 246 235 229 223 222 222 222 225 225 221 218 216 213 212
223 163 163 155 146 154 152 129 102 71 41 22 14 9 16 30 50 69 70 62 68 84 96 101 99 99 112 118 114 118 119 113 108 101 97 98 98 97 94 90 88 85 83 82 82 82 81 77 77 77 76 74 74 73 72 70 67 64 59 55 53 52 52 56 60 60 56 51 41 25 14 349 276 236 230 226 223 223 225 228 226 221 219 219 217 214
199 166 168 180 193 186 180 175 157 116 48 319 294 283 360 32 42 61 54 19 21 107 127 123 111 118 131 127 121 120 115 108 100 92 89 85 84 87 87 84 81 77 74 72 71 71 73 72 69 67 66 67 67 66 65 66 66 63 58 56 55 54 55 56 59 62 63 62 53 38 22 345 310 264 244 238 235 234 235 234 231 229 228 227 225 221
176 160 169 199 215 192 178 182 177 175 213 255 261 223 130 117 125 102 67 14 360 76 150 136 107 120 134 135 125 116 108 100 92 87 85 80 75 75 77 78 76 72 66 62 59 58 58 60 59 56 54 54 54 54 55 56 58 58 56 55 55 57 58 59 61 62 62 63 63 59 48 357 315 287 266 251 243 240 237 235 232 231 232 232 232 232
186 184 183 197 213 188 161 166 180 207 220 235 235 131 123 150 160 143 109 66 17 10 65 89 110 127 135 134 124 114 103 93 87 83 79 78 77 71 66 65 65 65 62 54 50 48 45 46 47 45 43 43 42 43 45 44 44 48 49 48 48 48 49 52 55 55 54 52 49 48 41 24 350 306 289 274 260 247 239 235 229 226 230 233 235 236
193 196 192 198 215 177 145 162 196 216 220 28 62 137 126 139 141 121 98 84 87 115 118 114 122 130 126 121 117 110 104 96 87 81 74 70 71 69 63 57 53 56 56 47 40 43 43 42 41 38 34 34 33 33 34 31 26 30 36 37 37 35 30 32 36 38 38 35 32 29 18 6 351 325 304 288 272 258 247 240 231 224 225 230 234 235
210 200 185 175 187 157 164 190 208 192 101 78 96 129 131 140 143 126 101 79 76 119 133 127 125 127 121 117 115 112 111 104 89 79 74 70 72 74 70 62 56 55 56 50 41 42 42 42 46 44 35 31 33 31 28 23 15 15 21 23 23 22 17 14 15 17 19 17 16 12 3 352 339 321 304 291 280 267 254 245 237 233 229 229 233 232
302 222 194 181 192 208 210 207 186 122 148 136 123 132 129 131 156 159 105 94 71 103 135 132 130 130 126 125 125 124 127 120 99 82 76 73 74 77 72 67 64 63 62 56 46 44 42 37 39 42 34 29 29 26 20 16 10 7 8 8 7 5 2 1 3 6 5 360 359 357 350 342 332 317 301 289 280 272 263 251 244 239 232 230 233 231
28 21 255 217 215 228 230 220 207 209 203 145 123 121 65 26 334 306 114 121 114 128 138 135 134 134 133 135 136 140 156 153 120 92 78 69 63 64 65 62 57 51 47 40 32 31 32 27 25 26 24 23 23 19 13 7 4 1 358 358 357 351 348 350 354 355 352 348 344 339 332 328 323 316 305 290 278 270 263 254 247 241 232 228 231 230
104 78 30 292 211 215 233 235 228 227 225 93 113 109 41 359 312 279 228 159 142 142 142 137 135 137 138 140 143 161 211 201 140 99 72 62 59 52 48 47 42 36 33 30 24 18 17 16 14 12 14 14 13 9 3 359 358 355 350 349 347 340 337 341 342 341 338 336 333 327 322 317 311 309 305 296 288 280 267 254 246 240 233 228 226 221
138 155 187 224 217 209 230 246 245 124 68 76 83 29 3 346 291 240 224 172 143 144 146 139 138 139 143 153 165 180 291 290 111 94 68 59 62 54 43 38 31 25 23 23 18 11 6 5 4 4 5 5 360 357 353 350 348 344 339 336 332 327 326 327 327 325 323 321 320 317 313 308 304 301 299 296 295 292 278 260 247 237 230 229 224 214
102 91 228 232 227 210 214 236 240 92 80 65 30 7 344 315 242 221 207 129 129 137 134 127 125 123 127 149 166 114 69 64 80 86 68 52 50 44 37 32 25 20 19 16 12 6 1 358 357 357 355 353 350 347 346 343 338 330 326 321 316 314 313 313 314 313 311 310 307 305 304 303 301 299 295 291 289 288 283 267 251 240 232 231 226 210
80 69 220 229 238 227 213 232 236 139 69 26 19 15 335 300 216 148 92 110 122 121 113 110 103 93 91 84 75 84 86 77 73 72 58 43 35 27 21 18 13 11 10 7 5 4 356 349 347 347 345 343 341 339 337 334 326 320 315 310 306 306 306 305 304 304 303 301 298 297 298 297 296 297 293 288 282 281 279 267 253 243 239 235 226 207
12 291 214 173 298 249 203 218 241 206 69 9 339 48 10 337 110 109 106 114 112 104 103 101 86 74 77 78 76 79 81 75 64 53 44 36 24 14 10 7 3 0 359 355 354 357 350 341 338 338 337 335 334 333 329 322 315 310 307 303 303 304 303 299 297 295 293 291 290 290 289 287 288 289 287 283 278 273 271 265 253 243 238 236 228 215
14 317 241 105 18 277 225 204 262 77 80 31 340 96 85 78 103 117 114 110 105 103 105 96 80 69 64 71 80 79 74 69 55 39 28 18 10 2 359 357 354 353 350 346 346 348 343 337 335 334 332 333 334 331 326 321 316 311 307 305 306 306 302 297 293 288 283 280 279 279 279 279 279 278 277 278 275 268 262 258 251 242 236 231 226 221
35 12 343 41 46 22 31 70 82 95 94 80 77 91 90 86 90 99 107 107 97 85 83 85 84 73 58 59 75 76 66 55 41 29 13 359 355 351 347 348 348 346 343 340 342 345 341 336 334 332 332 335 335 331 328 324 318 312 309 309 309 308 304 300 296 289 282 277 274 271 271 271 271 270 269 269 268 265 259 252 244 239 234 228 225 224
59 27 334 54 109 96 73 83 102 105 100 92 84 81 78 74 71 73 85 91 76 62 63 69 71 67 54 48 55 60 55 37 18 11 358 345 343 343 343 344 344 343 341 339 341 343 339 334 332 332 332 334 334 330 325 317 310 307 307 308 307 304 302 300 298 293 287 282 276 271 268 266 265 265 263 260 259 258 256 250 242 234 225 219 218 221
80 23 70 123 144 141 103 112 116 108 106 103 92 82 72 68 65 64 70 79 75 69 70 71 73 74 64 55 50 47 46 30 7 355 346 336 337 344 345 345 344 342 340 340 340 338 334 332 332 332 332 333 329 324 320 316 313 310 309 308 305 302 299 297 295 293 291 288 283 276 270 264 261 259 257 255 253 250 250 246 239 231 220 212 210 210
78 225 137 128 139 118 117 128 126 115 118 118 104 99 93 85 85 87 90 98 101 98 98 100 98 90 79 72 62 36 17 14 6 355 346 339 342 345 344 343 342 339 336 337 336 334 331 330 328 327 329 328 323 320 319 318 316 313 311 309 306 303 298 295 292 290 289 288 286 282 277 270 262 257 254 252 250 247 247 244 236 231 225 217 214 210
52 218 147 127 128 116 124 142 147 139 143 149 131 111 107 102 101 103 104 109 111 109 108 106 94 78 67 58 36 5 353 2 5 355 344 338 340 341 340 340 337 333 332 333 332 330 328 326 324 324 323 322 321 321 320 317 315 314 312 308 305 301 296 292 289 286 286 286 283 280 278 275 268 260 255 252 250 247 244 239 234 233 231 225 223 218
237 174 135 178 183 157 144 156 162 159 153 156 147 126 111 105 104 106 108 107 101 97 97 94 85 73 58 40 19 360 353 355 353 347 338 332 335 337 336 334 331 328 329 329 327 325 325 324 323 322 320 320 320 319 316 314 312 312 310 306 303 299 293 288 285 282 281 281 280 279 277 274 271 267 260 254 250 247 242 236 233 233 235 232 223 218
310 33 59 256 354 83 119 140 148 23 83 126 138 136 123 112 103 103 102 95 88 82 67 47 36 24 22 24 15 2 353 343 339 339 333 325 328 332 331 328 326 323 324 324 323 322 324 324 322 319 318 318 316 313 312 310 308 307 307 305 301 296 292 287 284 280 277 274 275 277 276 273 270 270 266 259 252 246 242 237 232 230 230 229 217 206
Height
760 765 767 763 758 755 755 753 752 752 751 751 752 753 751 751 751 744 745 748 747 753 752 747 751 750 746 745 747 751 753 756 757 759 759 760 762 764 766 769 771 774 776 777 781 783 785 787 789 790 791 793 794 795 797 799 802 804 803 804 806 808 809 810 813 815 816 818 820 821 822 822 824 826 826 827 828 829 829 830 830 830 830 830 830 830
763 766 761 754 751 751 753 754 757 759 758 756 755 755 753 752 748 742 747 750 749 755 751 745 751 749 744 744 746 750 755 757 757 759 760 760 761 763 765 768 770 773 774 777 780 782 785 786 787 789 790 791 792 794 796 798 801 802 803 805 805 807 809 810 812 814 816 818 819 820 821 822 824 825 826 827 828 829 829 830 831 831 831 831 831 831
767 764 754 749 751 754 757 758 759 761 760 759 755 755 755 749 746 746 750 751 751 755 749 746 751 749 746 748 748 749 753 755 754 756 759 759 761 763 764 767 768 772 775 777 780 781 783 784 786 788 789 790 791 793 796 797 800 802 803 804 805 806 808 810 812 814 816 817 819 820 821 822 824 825 826 827 828 829 830 830 831 832 832 832 832 832
766 757 747 748 754 758 761 761 761 761 761 759 755 756 754 746 747 752 753 752 752 754 750 748 750 749 751 754 752 750 750 752 754 756 756 757 759 761 763 764 766 770 774 777 778 779 781 783 784 786 788 789 791 793 795 796 798 800 801 802 803 805 807 810 812 814 816 817 819 820 821 823 824 825 826 827 829 829 830 831 831 832 832 832 833 833
755 748 745 750 755 757 761 763 763 762 760 756 754 753 749 744 746 748 750 753 753 755 753 751 753 751 751 756 755 752 752 754 756 757 758 757 757 759 761 762 765 768 771 774 776 777 778 781 782 784 786 788 790 792 794 795 796 798 800 801 802 804 807 809 811 813 815 817 818 820 821 823 824 825 826 827 828 829 830 831 831 832 832 833 833 833
749 748 749 753 756 755 759 761 760 760 757 755 754 750 745 743 744 746 750 754 756 758 751 750 760 756 746 750 753 754 757 758 758 758 759 758 758 759 761 762 764 766 767 769 772 774 776 778 781 783 785 787 789 791 793 794 795 797 799 800 802 804 806 808 811 813 815 816 818 819 821 822 823 825 826 826 827 828 829 830 831 832 832 833 833 834
747 750 750 752 756 756 758 757 753 754 755 753 748 745 744 743 746 750 750 752 755 756 749 749 759 759 750 747 748 751 757 758 758 759 757 756 757 758 760 761 763 765 765 767 769 771 774 776 779 781 783 786 788 790 792 793 794 796 798 799 801 803 805 807 810 812 814 815 817 819 820 821 822 823 824 826 827 828 829 830 831 832 833 833 834 834
746 751 753 753 756 756 757 754 749 750 754 749 740 739 743 744 748 750 748 748 746 747 751 747 748 756 756 749 746 749 755 756 756 758 756 753 755 756 757 759 760 763 765 766 768 769 771 774 776 779 782 784 786 789 791 792 792 794 796 798 800 802 804 806 809 811 813 815 817 819 820 821 822 823 825 826 827 829 830 830 832 832 833 834 834 834
742 750 753 752 755 753 748 744 742 746 749 744 739 739 739 742 746 745 745 745 742 749 757 747 742 754 755 748 747 749 751 754 754 754 753 751 752 754 755 756 757 759 762 763 766 768 769 771 774 777 781 783 785 787 789 790 791 793 795 797 798 800 803 805 808 810 812 814 816 818 820 821 822 824 825 827 828 829 829 830 831 832 833 834 835 835
743 746 745 746 749 746 740 739 740 743 745 742 740 740 739 742 744 745 745 742 747 759 760 748 746 756 756 747 748 751 750 752 752 751 751 749 748 751 752 754 755 757 759 761 763 766 768 770 772 776 779 781 784 786 788 790 791 793 795 797 798 800 802 805 807 810 811 814 816 818 819 821 823 824 826 827 828 829 829 830 831 832 833 834 835 835
742 743 743 742 742 739 739 743 743 742 743 742 741 740 743 744 743 746 743 741 757 768 757 748 748 756 761 750 743 750 751 748 748 747 750 750 748 750 751 752 754 755 758 759 761 764 767 769 772 775 778 780 784 786 789 791 793 795 796 798 799 801 803 805 807 809 811 813 816 817 819 821 822 824 826 827 828 829 829 829 830 831 832 833 834 835
741 744 744 739 738 739 741 744 746 744 743 744 740 739 748 752 749 752 751 753 769 770 754 748 748 755 764 753 740 746 750 749 750 749 751 753 751 752 752 751 752 754 756 758 760 762 766 769 772 776 779 782 786 789 792 794 795 797 799 800 802 802 803 805 807 808 810 813 815 817 819 820 821 823 825 826 828 828 829 829 830 831 832 833 834 835
744 741 737 736 738 739 740 743 747 747 745 745 740 741 755 762 765 768 765 764 768 764 754 750 752 758 759 750 743 747 751 753 755 754 754 755 754 754 754 753 752 753 754 756 759 762 766 769 772 775 780 783 786 790 794 798 800 801 803 805 807 807 805 805 806 808 811 813 816 817 819 820 821 822 824 825 827 828 829 829 830 830 831 833 834 835
750 741 734 738 740 736 738 741 747 750 747 745 741 744 755 763 776 782 771 765 764 761 755 750 757 761 754 749 748 750 754 755 755 756 757 757 757 757 755 753 753 753 754 756 759 762 765 767 770 775 780 782 784 786 790 796 800 804 807 811 815 817 815 811 810 811 813 815 816 817 818 820 821 822 824 824 826 827 828 829 830 830 831 832 833 835
753 750 738 737 736 733 735 734 735 738 740 739 731 735 746 750 764 774 766 762 762 760 759 759 762 759 754 755 753 750 753 753 753 755 755 757 756 756 755 754 754 755 755 757 760 763 766 767 771 777 780 782 784 787 790 794 797 801 805 810 816 820 821 819 815 813 813 813 813 815 817 819 821 822 824 825 826 827 828 829 830 830 831 832 833 835
749 746 730 730 733 729 732 729 724 731 739 737 728 734 745 738 743 760 766 765 763 762 763 764 759 748 748 754 750 750 752 751 753 754 754 757 756 755 757 756 757 759 759 761 764 767 769 771 775 778 780 782 784 788 792 795 796 798 801 806 811 815 817 819 816 812 810 809 810 812 816 819 821 822 824 825 826 827 827 828 829 830 831 832 833 834
749 744 727 731 736 729 731 729 725 733 739 739 738 741 739 728 733 755 770 770 770 770 763 759 757 749 750 755 749 749 753 751 754 755 755 758 757 758 760 760 761 761 762 765 767 770 772 774 777 779 781 783 785 788 792 795 795 797 800 804 809 812 813 814 813 810 809 809 810 812 815 818 820 821 823 824 825 826 827 828 829 830 832 833 833 834
743 743 730 730 736 733 732 731 729 730 731 737 743 737 731 734 738 748 763 769 772 774 764 758 761 755 756 760 752 750 755 756 756 757 758 759 759 760 761 761 762 762 764 767 769 772 774 776 778 780 782 785 787 789 791 794 795 796 799 803 808 813 814 812 811 809 809 809 810 812 814 817 819 821 822 824 825 827 828 828 829 831 832 833 834 834
737 744 737 729 733 734 730 733 736 733 729 733 734 726 732 751 752 749 761 769 772 775 767 760 759 752 751 757 755 755 760 762 760 759 761 761 761 762 762 764 766 767 769 770 773 776 777 779 781 782 783 784 788 791 791 795 796 794 797 802 807 813 816 813 810 809 809 810 811 812 814 816 818 820 822 823 824 826 827 828 829 831 832 833 834 835
735 747 747 735 732 733 731 734 738 736 733 733 732 727 732 744 748 747 752 755 762 770 767 766 764 753 749 755 759 762 766 767 764 763 764 764 764 766 768 770 772 772 773 773 774 777 779 781 782 784 785 785 788 792 793 795 795 794 797 802 807 812 814 813 810 808 809 810 811 812 814 816 819 820 821 822 823 825 826 828 829 831 832 833 834 835
737 747 749 739 734 736 735 734 733 733 734 736 738 738 738 740 743 746 746 744 752 760 763 770 768 757 760 767 767 768 771 771 767 765 767 769 770 773 775 774 774 775 776 776 777 779 781 783 784 786 787 789 791 793 794 795 794 795 799 804 808 811 811 810 809 808 809 810 811 813 814 816 818 819 820 821 823 824 826 828 829 830 831 832 834 834
739 745 745 742 740 738 736 734 733 732 731 733 734 734 735 739 744 753 756 747 746 751 754 761 762 761 771 776 772 773 775 773 769 766 770 774 776 779 780 778 779 778 779 779 780 781 783 785 787 787 788 791 793 794 794 795 795 798 801 805 808 809 807 807 807 807 808 809 811 812 813 815 817 819 820 821 822 824 826 828 829 830 831 832 833 834
739 742 744 744 738 733 735 737 737 736 733 733 733 729 729 732 737 751 757 749 749 751 749 751 757 767 778 777 774 777 775 771 768 767 772 777 778 781 783 784 785 783 783 783 782 783 784 785 787 788 790 793 795 794 794 795 797 800 802 804 807 806 805 805 805 806 808 809 811 812 813 815 816 818 820 820 822 823 825 827 828 829 830 832 833 834
743 744 747 746 738 733 735 736 735 736 736 736 736 735 735 734 735 741 742 741 749 752 752 757 760 768 779 778 775 776 773 770 768 768 774 779 779 783 785 786 787 786 786 786 786 786 787 787 787 788 790 792 793 794 794 796 798 800 803 805 805 805 805 805 805 807 808 809 810 812 813 815 816 817 819 820 821 823 824 826 827 828 829 831 832 833
748 751 751 749 748 747 745 743 742 740 737 739 742 744 745 741 739 741 738 741 749 747 748 756 759 768 779 778 776 775 773 773 772 773 777 779 782 786 787 788 789 789 789 789 789 789 788 789 790 790 790 791 792 794 795 797 799 802 804 805 805 805 805 805 806 807 807 808 810 811 813 814 815 817 818 819 821 822 823 825 826 827 828 829 831 832
755 762 759 755 757 759 757 753 750 743 740 745 750 751 751 747 746 746 741 746 753 746 742 747 755 773 782 777 776 777 775 779 780 780 783 783 786 789 790 792 793 791 792 792 791 791 791 791 793 793 795 795 795 796 797 799 801 803 805 805 805 806 806 806 807 807 808 809 809 811 812 813 815 816 817 818 820 821 823 824 825 826 827 828 829 831
761 770 768 765 765 764 762 758 751 744 743 749 752 752 752 752 751 748 743 745 747 743 745 746 753 773 782 778 781 783 781 786 787 787 790 791 790 792 793 795 795 794 795 795 795 795 795 796 796 797 798 798 799 800 800 802 803 804 805 805 805 806 806 807 807 808 809 809 809 810 811 812 814 815 816 817 818 820 821 822 824 825 826 827 828 829
760 772 774 772 770 767 764 760 753 748 748 753 755 755 754 752 751 751 752 752 748 746 751 751 753 770 781 783 790 792 790 792 792 792 794 794 794 794 795 796 797 797 798 798 799 799 799 800 800 800 801 801 802 803 803 804 804 805 805 805 805 806 806 807 807 808 809 809 810 811 811 812 813 814 816 817 818 819 820 821 823 824 825 826 827 828
751 767 772 770 770 768 767 764 759 756 757 758 759 760 758 755 755 758 762 762 756 755 759 758 762 774 783 789 796 797 795 795 795 795 795 795 795 795 796 798 799 800 801 802 802 803 803 804 803 803 804 804 804 804 805 805 805 805 806 806 806 807 807 808 808 808 809 809 810 811 812 813 814 814 816 816 817 819 819 821 822 823 824 825 825 827
745 762 767 764 766 770 769 768 767 766 767 766 764 764 763 761 761 763 766 764 762 765 767 768 775 784 789 793 797 797 796 796 795 795 795 796 797 797 798 801 802 804 805 805 806 806 806 806 806 807 807 807 807 807 807 806 806 806 806 807 807 808 808 809 809 809 810 810 811 812 813 813 814 815 815 816 817 818 818 819 820 821 822 823 824 825
744 761 764 759 765 770 768 769 771 772 773 773 772 771 769 768 767 766 768 768 767 772 777 780 787 793 793 794 797 797 796 795 796 797 797 798 799 800 802 804 806 808 809 810 810 809 809 809 810 810 810 810 810 809 808 808 807 808 808 808 809 809 809 810 810 811 811 811 812 813 813 814 814 815 815 816 817 817 818 819 819 820 821 821 822 823
744 758 762 760 763 766 765 767 768 770 775 776 775 775 776 777 777 777 779 778 774 775 779 781 784 791 794 795 797 797 796 797 799 801 802 803 803 804 806 808 811 812 813 815 815 814 813 813 813 813 813 812 812 811 810 809 809 810 810 810 810 810 811 811 811 812 812 813 813 813 814 814 814 815 815 816 816 817 817 818 818 819 820 820 821 822
742 753 759 758 758 760 761 763 764 769 775 775 773 775 779 784 788 788 788 788 784 779 777 775 779 789 795 795 797 798 799 801 803 805 807 810 811 811 812 813 815 816 818 819 820 819 818 817 816 816 815 814 814 813 812 811 811 812 812 812 812 812 812 812 812 813 813 813 813 814 814 814 814 814 815 815 815 815 816 816 817 817 818 819 820 820
742 747 749 749 754 760 761 762 768 774 775 775 778 780 780 780 783 787 791 793 791 787 782 780 786 793 795 795 798 801 803 806 808 809 811 814 816 818 819 820 821 821 822 823 823 823 822 821 820 819 818 817 817 816 815 814 813 813 813 813 813 813 813 813 813 813 813 813 813 813 814 814 813 814 814 814 814 815 815 815 815 816 816 817 818 818
746 746 745 746 751 758 762 768 775 778 776 779 784 783 780 777 778 785 792 793 790 788 789 790 793 796 796 798 801 803 806 809 811 813 816 817 819 822 824 826 826 826 826 827 827 826 825 824 823 821 821 821 820 819 818 817 816 815 814 814 814 814 814 814 814 814 814 814 814 814 814 813 813 813 813 813 814 814 814 814 814 814 815 815 816 816
748 746 747 749 753 760 765 767 772 779 783 786 787 782 781 780 778 781 789 794 790 787 788 792 796 799 801 804 805 807 809 810 812 816 819 821 822 824 826 826 827 828 829 830 830 828 826 825 824 823 823 823 822 821 820 819 818 817 816 816 815 815 815 814 814 815 815 814 814 814 814 814 813 813 813 813 813 813 813 813 812 813 813 813 814 814
749 747 749 754 760 762 759 758 766 777 782 785 786 785 783 783 781 779 785 796 798 790 788 793 797 800 803 805 806 807 807 808 811 817 820 821 822 823 824 825 827 828 830 831 830 828 826 824 823 823 823 822 821 820 819 819 819 818 818 818 817 816 816 815 815 815 815 815 814 814 814 814 813 813 813 813 812 812 812 811 811 811 811 811 811 811
753 752 752 757 764 761 756 759 766 770 772 778 784 786 786 787 787 782 782 794 801 795 791 794 798 800 803 804 805 808 806 803 807 816 820 821 822 823 824 825 826 827 828 828 827 825 824 823 822 821 821 821 820 820 820 820 820 819 819 819 818 818 817 816 816 816 816 816 815 815 814 814 813 813 812 812 812 811 811 811 810 810 810 810 809 810
757 757 756 760 764 762 760 761 761 764 776 785 787 788 788 787 789 785 779 785 797 798 794 796 800 802 804 805 806 808 803 797 802 816 822 822 824 825 825 826 826 827 827 826 826 824 823 823 822 822 822 822 821 821 821 821 820 820 819 819 819 819 818 817 818 817 817 817 816 815 815 814 813 813 812 812 811 811 810 810 809 809 809 809 808 808
760 759 760 763 765 766 766 762 760 771 789 794 791 791 790 788 791 787 777 780 794 799 796 798 802 803 805 806 806 807 806 802 807 819 824 823 825 827 826 827 827 826 826 826 826 826 825 824 824 823 823 823 822 822 821 821 821 820 820 820 819 819 818 818 818 818 817 817 816 815 815 814 813 813 812 811 811 810 809 809 808 808 808 808 807 806
765 765 764 763 763 765 769 766 765 778 796 798 795 796 794 791 790 784 779 787 797 799 798 800 803 804 805 805 804 807 813 814 816 821 824 823 825 826 826 827 827 826 827 827 827 826 825 825 824 824 824 823 823 822 822 821 821 821 820 820 819 818 818 818 817 817 816 816 815 814 814 813 813 812 811 810 810 809 808 808 807 807 807 807 806 805
771 771 767 764 765 767 771 770 769 781 799 803 800 799 798 794 789 788 792 798 799 800 802 804 806 807 808 808 808 811 816 819 820 822 823 824 825 826 826 827 826 827 827 827 827 827 826 825 825 824 824 824 823 823 822 821 821 821 820 819 819 818 818 817 817 816 815 815 814 813 812 812 812 811 810 809 809 808 807 806 806 806 806 805 805 804
778 775 766 770 777 773 771 775 778 786 801 806 801 800 800 798 797 799 803 802 801 804 807 807 810 812 811 813 815 816 818 821 822 824 824 825 826 826 827 827 827 827 828 827 827 827 826 826 825 824 824 823 823 822 822 821 821 820 819 819 818 818 817 816 816 815 814 813 813 812 811 810 810 809 809 808 807 806 805 805 804 804 804 804 804 804
784 779 769 777 788 780 772 781 792 797 801 801 798 799 802 802 802 803 803 803 805 807 807 810 814 816 815 817 819 820 822 824 825 826 826 827 828 828 828 828 828 828 828 827 827 826 826 825 824 823 823 823 822 822 821 820 820 819 819 818 817 817 816 815 814 813 812 811 810 810 809 808 807 807 806 805 805 804 803 803 802 802 802 803 802 802
790 790 782 786 797 795 789 796 804 804 802 800 800 802 805 805 804 803 803 806 809 809 810 813 817 819 819 820 821 822 825 826 827 828 829 828 829 829 829 829 829 828 828 827 826 826 826 824 823 823 822 821 821 821 820 820 819 818 817 817 816 815 814 813 812 811 810 809 808 807 806 805 804 804 804 803 803 802 801 800 800 800 800 800 800 800
794 795 791 792 799 803 804 806 807 805 806 807 807 808 809 809 809 809 809 811 814 815 817 818 820 822 823 823 823 825 827 829 829 830 830 830 830 830 829 829 829 829 828 827 826 825 825 823 823 822 821 821 821 820 819 819 818 817 816 816 815 814 812 811 810 809 808 806 805 804 803 802 801 800 800 800 799 799 798 797 797 796 797 797 798 798
795 794 793 795 798 800 804 808 808 809 810 811 811 813 814 814 815 816 816 818 820 821 822 823 825 826 826 826 828 828 829 831 831 830 830 830 830 829 829 829 829 828 827 826 826 825 824 823 822 822 821 821 820 818 818 817 816 815 815 814 813 812 811 810 808 807 806 804 803 801 800 798 797 797 796 796 795 795 794 794 793 793 793 794 795 796
794 793 793 796 796 797 802 808 809 810 811 810 810 813 816 817 819 820 821 823 824 824 826 827 827 828 829 830 831 831 830 831 831 831 831 830 829 829 829 828 828 827 826 826 825 825 824 823 822 822 822 820 818 817 816 816 815 814 813 812 811 810 809 807 806 805 804 803 801 800 798 796 795 794 793 792 792 791 790 790 790 790 790 790 791 792
795 793 794 796 798 801 805 808 810 811 812 812 812 813 814 816 819 820 821 822 823 824 826 827 827 828 829 830 830 830 830 830 830 830 830 829 828 828 827 827 827 826 826 826 825 825 824 824 823 822 821 819 818 817 816 815 814 812 811 810 809 808 807 806 805 803 802 801 799 797 796 794 793 791 790 789 788 787 786 786 786 787 787 788 788 789
794 792 794 795 797 800 803 805 807 806 806 809 813 815 816 817 818 819 821 821 822 824 825 826 827 828 829 830 830 830 830 830 830 830 829 828 828 827 827 827 827 826 826 826 825 824 824 823 822 821 820 819 818 816 815 814 812 811 810 809 807 806 805 804 802 801 800 799 797 795 794 792 790 789 788 786 785 784 783 783 784 785 785 786 786 786
796 795 795 794 795 797 799 802 805 804 803 807 812 815 817 818 819 820 821 822 823 825 826 826 827 828 828 829 830 830 830 830 830 830 829 828 828 827 828 828 827 826 826 825 824 824 823 822 821 820 819 818 817 816 814 813 811 809 808 806 805 804 803 801 800 798 797 796 795 794 792 791 789 788 786 783 782 781 780 780 781 782 783 783 784 785